When you browse on this site, cookies collect data to enhance your experience and personalize the content and advertising you see.
Visit our Privacy Policy to learn more. By continuing to use the site, you agree to this use of cookies and data.
  • In Slovakia
  • List of Countries
  • For 7 days
  • Water Temperature
  • Satellite Maps
  • Weather Map
  • Weather Widgets
  • user-avatar
    Login

    Hourly Weather Fier

    Today, 17 December, Monday

    Time Temperature Precipitation Wind Pressure Humidity
    00:00 +5°C° 0 mm 2 mps 762 mmHg 77%
    01:00 +5°C° 0 mm 2 mps 762 mmHg 76%
    02:00 +6°C° 0 mm 2 mps 762 mmHg 73%
    03:00 +6°C° 0 mm 2 mps 761 mmHg 71%
    04:00 +6°C° 0 mm 2 mps 761 mmHg 68%
    05:00 +7°C° 0 mm 2 mps 761 mmHg 66%
    06:00 +7°C° 0 mm 2 mps 761 mmHg 64%
    07:00 +7°C° 0 mm 2 mps 761 mmHg 61%
    08:00 +8°C° 0 mm 3 mps 760 mmHg 61%
    09:00 +9°C° 0 mm 3 mps 760 mmHg 61%
    10:00 +8°C° 0 mm 4 mps 760 mmHg 60%
    11:00 +10°C° 0.1 mm 4 mps 759 mmHg 61%
    12:00 +9°C° 0.1 mm 5 mps 759 mmHg 61%
    13:00 +8°C° 0 mm 6 mps 759 mmHg 60%
    14:00 +8°C° 0.6 mm 6 mps 758 mmHg 64%
    15:00 +8°C° 0.6 mm 6 mps 758 mmHg 68%
    16:00 +8°C° 0.6 mm 6 mps 758 mmHg 72%
    17:00 +8°C° 0.9 mm 6 mps 757 mmHg 75%
    18:00 +8°C° 0.9 mm 6 mps 757 mmHg 78%
    19:00 +8°C° 0.9 mm 6 mps 757 mmHg 80%
    20:00 +7°C° 1.3 mm 5 mps 758 mmHg 82%
    21:00 +7°C° 1.3 mm 5 mps 758 mmHg 84%
    22:00 +7°C° 1.3 mm 5 mps 758 mmHg 86%
    23:00 +6°C° 1.5 mm 5 mps 759 mmHg 85%

    Tomorrow, 18 December, Tuesday

    Time Temperature Precipitation Wind Pressure Humidity
    00:00 +6°C° 1.5 mm 5 mps 759 mmHg 85%
    01:00 +6°C° 1.5 mm 5 mps 759 mmHg 85%
    02:00 +6°C° 0.7 mm 5 mps 759 mmHg 84%
    03:00 +6°C° 0.7 mm 5 mps 760 mmHg 84%
    04:00 +5°C° 0.7 mm 5 mps 760 mmHg 83%
    05:00 +5°C° 0.3 mm 5 mps 760 mmHg 83%
    06:00 +5°C° 0.3 mm 5 mps 761 mmHg 83%
    07:00 +5°C° 0.3 mm 5 mps 761 mmHg 83%
    08:00 +5°C° 0.1 mm 5 mps 762 mmHg 81%
    09:00 +6°C° 0.1 mm 5 mps 762 mmHg 79%
    10:00 +6°C° 0.1 mm 5 mps 763 mmHg 77%
    11:00 +7°C° 0 mm 5 mps 763 mmHg 75%
    12:00 +7°C° 0 mm 5 mps 763 mmHg 73%
    13:00 +8°C° 0 mm 5 mps 763 mmHg 72%
    14:00 +7°C° 0 mm 5 mps 763 mmHg 74%
    15:00 +7°C° 0 mm 5 mps 763 mmHg 76%
    16:00 +6°C° 0 mm 5 mps 763 mmHg 78%
    17:00 +6°C° 0 mm 5 mps 764 mmHg 79%
    18:00 +5°C° 0 mm 4 mps 764 mmHg 79%
    19:00 +5°C° 0 mm 4 mps 764 mmHg 80%
    20:00 +4°C° 0 mm 4 mps 765 mmHg 80%
    21:00 +4°C° 0 mm 4 mps 765 mmHg 80%
    22:00 +4°C° 0 mm 3 mps 765 mmHg 79%
    23:00 +4°C° 0 mm 4 mps 765 mmHg 79%

    Day after tomorrow, 19 December, Wednesday

    Time Temperature Precipitation Wind Pressure Humidity
    00:00 +3°C° 0 mm 4 mps 766 mmHg 79%
    01:00 +3°C° 0 mm 4 mps 766 mmHg 79%
    02:00 +3°C° 0 mm 4 mps 766 mmHg 79%
    03:00 +3°C° 0 mm 3 mps 766 mmHg 78%
    04:00 +2°C° 0 mm 3 mps 766 mmHg 78%
    05:00 +2°C° 0 mm 3 mps 766 mmHg 78%
    06:00 +2°C° 0 mm 3 mps 766 mmHg 78%
    07:00 +2°C° 0 mm 3 mps 767 mmHg 78%
    08:00 +3°C° 0 mm 3 mps 767 mmHg 74%
    09:00 +5°C° 0 mm 3 mps 767 mmHg 71%
    10:00 +7°C° 0 mm 3 mps 767 mmHg 68%
    11:00 +8°C° 0 mm 3 mps 767 mmHg 68%
    12:00 +9°C° 0 mm 3 mps 767 mmHg 67%
    13:00 +10°C° 0 mm 3 mps 767 mmHg 66%
    14:00 +9°C° 0 mm 3 mps 767 mmHg 69%
    15:00 +8°C° 0 mm 2 mps 767 mmHg 73%
    16:00 +7°C° 0 mm 2 mps 767 mmHg 76%
    17:00 +6°C° 0 mm 2 mps 767 mmHg 77%
    18:00 +6°C° 0 mm 2 mps 768 mmHg 77%
    19:00 +5°C° 0 mm 2 mps 768 mmHg 78%
    20:00 +5°C° 0 mm 2 mps 768 mmHg 76%
    21:00 +5°C° 0 mm 2 mps 768 mmHg 75%
    22:00 +4°C° 0 mm 2 mps 768 mmHg 74%
    23:00 +4°C° 0 mm 2 mps 768 mmHg 73%

    20 December, Thursday

    Time Temperature Precipitation Wind Pressure Humidity
    00:00 +4°C° 0 mm 2 mps 768 mmHg 72%
    01:00 +4°C° 0 mm 2 mps 768 mmHg 71%
    02:00 +4°C° 0 mm 2 mps 768 mmHg 71%
    03:00 +4°C° 0 mm 3 mps 768 mmHg 71%
    04:00 +4°C° 0 mm 3 mps 768 mmHg 72%
    05:00 +4°C° 0 mm 3 mps 768 mmHg 72%
    06:00 +4°C° 0 mm 3 mps 768 mmHg 72%
    07:00 +4°C° 0 mm 4 mps 768 mmHg 73%
    08:00 +5°C° 0 mm 4 mps 768 mmHg 72%
    09:00 +7°C° 0 mm 4 mps 768 mmHg 71%
    10:00 +10°C° 0 mm 4 mps 768 mmHg 70%
    11:00 +10°C° 0 mm 4 mps 768 mmHg 68%
    12:00 +11°C° 0 mm 4 mps 768 mmHg 67%
    13:00 +12°C° 0 mm 4 mps 767 mmHg 66%
    14:00 +11°C° 0 mm 4 mps 767 mmHg 68%
    15:00 +10°C° 0 mm 4 mps 767 mmHg 71%
    16:00 +8°C° 0 mm 4 mps 767 mmHg 74%
    17:00 +8°C° 0 mm 5 mps 767 mmHg 75%
    18:00 +7°C° 0 mm 5 mps 767 mmHg 76%
    19:00 +6°C° 0 mm 5 mps 768 mmHg 78%
    20:00 +6°C° 0 mm 5 mps 768 mmHg 78%
    21:00 +6°C° 0 mm 5 mps 768 mmHg 78%
    22:00 +6°C° 0 mm 5 mps 768 mmHg 78%
    23:00 +6°C° 0 mm 5 mps 768 mmHg 77%

    21 December, Friday

    Time Temperature Precipitation Wind Pressure Humidity
    00:00 +6°C° 0 mm 5 mps 768 mmHg 77%
    01:00 +7°C° 0 mm 5 mps 768 mmHg 76%
    02:00 +7°C° 0.1 mm 4 mps 768 mmHg 77%
    03:00 +7°C° 0.1 mm 4 mps 768 mmHg 78%
    04:00 +8°C° 0.1 mm 3 mps 767 mmHg 79%
    05:00 +8°C° 0.1 mm 3 mps 768 mmHg 80%
    06:00 +8°C° 0.1 mm 3 mps 768 mmHg 81%
    07:00 +8°C° 0.1 mm 3 mps 768 mmHg 82%
    08:00 +9°C° 0.1 mm 3 mps 768 mmHg 79%
    09:00 +12°C° 0.1 mm 2 mps 768 mmHg 77%
    10:00 +13°C° 0.1 mm 2 mps 769 mmHg 74%
    11:00 +14°C° 0.1 mm 2 mps 768 mmHg 73%
    12:00 +14°C° 0.1 mm 2 mps 768 mmHg 73%
    13:00 +15°C° 0.1 mm 2 mps 768 mmHg 72%
    14:00 +14°C° 0.1 mm 2 mps 768 mmHg 76%
    15:00 +13°C° 0.1 mm 2 mps 768 mmHg 79%
    16:00 +12°C° 0.1 mm 2 mps 768 mmHg 83%
    17:00 +12°C° 0 mm 1 mps 768 mmHg 84%
    18:00 +11°C° 0 mm 1 mps 769 mmHg 86%
    19:00 +10°C° 0 mm 1 mps 769 mmHg 87%
    20:00 +9°C° 0 mm 2 mps 769 mmHg 87%
    21:00 +9°C° 0 mm 2 mps 769 mmHg 87%
    22:00 +8°C° 0 mm 2 mps 769 mmHg 87%
    23:00 +8°C° 0 mm 2 mps 769 mmHg 87%

    22 December, Saturday

    Time Temperature Precipitation Wind Pressure Humidity
    00:00 +8°C° 0 mm 2 mps 769 mmHg 88%
    01:00 +8°C° 0 mm 2 mps 769 mmHg 88%
    02:00 +8°C° 0 mm 2 mps 768 mmHg 89%
    03:00 +8°C° 0 mm 2 mps 768 mmHg 89%
    04:00 +9°C° 0 mm 1 mps 768 mmHg 90%
    05:00 +8°C° 0 mm 2 mps 768 mmHg 89%
    06:00 +8°C° 0 mm 2 mps 768 mmHg 88%
    07:00 +8°C° 0 mm 2 mps 768 mmHg 87%
    08:00 +9°C° 0 mm 2 mps 768 mmHg 83%
    09:00 +10°C° 0 mm 2 mps 768 mmHg 80%
    10:00 +13°C° 0 mm 2 mps 768 mmHg 76%
    11:00 +13°C° 0 mm 2 mps 768 mmHg 74%
    12:00 +14°C° 0 mm 2 mps 767 mmHg 71%
    13:00 +14°C° 0 mm 2 mps 767 mmHg 69%
    14:00 +13°C° 0 mm 2 mps 767 mmHg 73%
    15:00 +13°C° 0 mm 2 mps 767 mmHg 76%
    16:00 +12°C° 0 mm 1 mps 767 mmHg 79%
    17:00 +11°C° 0 mm 1 mps 767 mmHg 81%
    18:00 +11°C° 0 mm 1 mps 767 mmHg 82%
    19:00 +10°C° 0 mm 1 mps 767 mmHg 84%
    20:00 +10°C° 0 mm 1 mps 767 mmHg 84%
    21:00 +10°C° 0 mm 1 mps 767 mmHg 84%
    22:00 +10°C° 0 mm 1 mps 768 mmHg 85%
    23:00 +10°C° 0 mm 1 mps 767 mmHg 85%
    Show more